Regional Weather Roundup
Issued by NWS Charleston, WV

Home | Current Version | Previous Version | Graphics & Text | Print | Product List | Glossary On
Versions: 1 2 3 4 5 6 7 8 9 10 11 12 13 14 15 16 17 18 19 20 21 22 23 24 25 26 27 28 29 30 31 32 33 34 35 36 37 38 39 40 41 42 43 44 45 46 47 48 49 50
000
ASUS41 KRLX 250210
RWRRLX
West Virginia Regional Weather Roundup
National Weather Service Charleston WV
1000 PM EDT FRI MAR 24 2017

Note: "fair" indicates few or no clouds below 12,000 feet with no
significant weather and/or obstructions to visibility.

WVZ003-250300-
Northern Panhandle of West Virginia

CITY           SKY/WX    TMP DP  RH WIND       PRES   REMARKS
WHEELING       CLOUDY    67  50  54 SW12      30.13R
$$

WVZ009-250300-
Northwest West Virginia

CITY           SKY/WX    TMP DP  RH WIND       PRES   REMARKS
PARKERSBURG    CLOUDY    68  50  52 S5        30.18R
$$

WVZ006-250300-
Western West Virginia

CITY           SKY/WX    TMP DP  RH WIND       PRES   REMARKS
HUNTINGTON     PTCLDY    69  47  45 S6        30.17R
$$

WVZ015-250300-
West Central West Virginia

CITY           SKY/WX    TMP DP  RH WIND       PRES   REMARKS
CHARLESTON     CLOUDY    69  46  43 S9        30.18R
$$

WVZ022-031-250300-
North Central West Virginia

CITY           SKY/WX    TMP DP  RH WIND       PRES   REMARKS
CLARKSBURG     MOCLDY    66  50  56 SW5       30.17R
MORGANTOWN     CLOUDY    69  49  48 SW7       30.17R
$$

WVZ025-035-042-045-250300-
Southern West Virginia

CITY           SKY/WX    TMP DP  RH WIND       PRES   REMARKS
BECKLEY        CLOUDY    59  44  57 S6        30.26R
LOGAN            N/A     66  46  48 CALM      30.22R
BLUEFIELD      CLOUDY    60  43  53 S6        30.29S
LEWISBURG      PTCLDY    57  44  61 CALM      30.26S
$$

WVZ047-250300-
Northern Mountains of West Virginia

CITY           SKY/WX    TMP DP  RH WIND       PRES   REMARKS
ELKINS         CLOUDY    53  46  77 CALM      30.22R
$$

WVZ052-250300-
Eastern Panhandle of West Virginia

CITY           SKY/WX    TMP DP  RH WIND       PRES   REMARKS
MARTINSBURG    CLEAR     58  39  49 S7        30.13R
PETERSBURG     PTCLDY    68  43  40 S13       30.16R
$$



USA.gov is the U.S. government's official web portal to all federal, state and local government web resources and services.